Zurück zum Katalog

NAVSTAR 34

USA 94

AktivNavigationMEO
NORAD 22779·PAYLOAD·🇺🇸 United States

Gestartet Aug 30, 1993 von Cape Canaveral Space Force Station

Loading…

Nächste Überflüge (nächste 24 Stunden)

TLE

AktuellSource: Space-Track

Epoche: Sep 13, 2026, 12:13 UTC

1 22779U 93054A   26256.50905917  .00000007  00000-0  00000-0 0  9992
2 22779  53.2796 214.5854 0051577 255.4158 241.3040  1.89129788237699

Verfolge NAVSTAR 34 in Echtzeit mit AllMySat

Download on the App Store